Bingham Lake, MN (56118)

8:21 AM CST on February 10, 2016 (GMT -0600)
Windom Municipal | | Change Station
CLOSE
Current Station
Airport
Location: Windom,
Elevation: 1411 ft
Nearby Weather Stations

Elev 1411 ft 43.91 °N, 95.11 °W | Updated 7 minutes ago

Snow
Snow
7 °F
Feels Like 7 °F
N
0
Wind Variable Wind from North

Today
High -- | Low -- °F
--% Chance of Precip.
Yesterday
High -- | Low -- °F
Precip. -- in
Pressure 30.04 in
Visibility 2.0 miles
Clouds Mostly Cloudy 1900 ft
Mostly Cloudy 2400 ft
Overcast 3000 ft
Dew Point 3 °F
Humidity 85%
Rainfall 0.00 in
Snow Depth Not available.
7:26 AM 5:42 PM
Waxing Crescent, 5% visible
METAR KMWM 101414Z AUTO 00000KT 2SM -SN BKN019 BKN024 OVC030 M14/M16 A3004 RMK AO2
Pressure 30.04 in
Visibility 2.0 miles
Clouds Mostly Cloudy 1900 ft
Mostly Cloudy 2400 ft
Overcast 3000 ft
Dew Point 3 °F
Humidity 85%
Rainfall 0.00 in
Snow Depth Not available.
7:26 AM 5:42 PM
Waxing Crescent, 5% visible
METAR KMWM 101414Z AUTO 00000KT 2SM -SN BKN019 BKN024 OVC030 M14/M16 A3004 RMK AO2

10-Day Weather Forecast

Almanac

Astronomy

Feb. 10, 2016 Rise Set
Actual Time
Civil Twilight
Nautical Twilight
Astronomical Twilight
Moon
Length of Visible Light
Length of Day
Tomorrow will be .
, % of the Moon is Illuminated

Today's Extremes

State Highs State Lows

Community

WunderPhotos

Upload Photos

1,891,850 photos uploaded!

WunderBlog® & News

Nearby

Air Quality

  Air Quality AQ Index Pollutant
Not available.

Snow Depth

Station Depth Elevation

Earthquake Activity

City Distance Mag. Time & Date
Minimum magnitude displayed is 2.5.

Coastal Water Temperatures

Place Temperature

Stations

Nearby Weather Stations

Station Location Temp. Windchill Dew Point Humidity Wind Precip. Elev Updated Type
                   

Watches & Warnings

There are currently no watches in effect.